TimeAKDT,TemperatureF,Dew PointF,Humidity,Sea Level PressureIn,VisibilityMPH,Wind Direction,Wind SpeedMPH,Gust SpeedMPH,PrecipitationIn,Events,Conditions,WindDirDegrees,DateUTC
12:53 AM,25.0,16.0,69,30.46,10.0,North,25.3,32.2,N/A,,Clear,350,2012-10-31 08:53:00
1:53 AM,25.0,16.0,69,30.45,10.0,North,23.0,29.9,N/A,,Clear,350,2012-10-31 09:53:00
2:53 AM,24.1,15.1,69,30.45,10.0,North,21.9,29.9,N/A,,Clear,350,2012-10-31 10:53:00
3:53 AM,24.1,12.0,60,30.44,10.0,North,28.8,38.0,N/A,,Clear,360,2012-10-31 11:53:00
4:53 AM,24.1,14.0,65,30.45,10.0,North,25.3,31.1,N/A,,Clear,350,2012-10-31 12:53:00
5:53 AM,24.1,14.0,65,30.44,10.0,North,27.6,36.8,N/A,,Clear,350,2012-10-31 13:53:00
6:53 AM,24.1,12.9,62,30.44,10.0,North,24.2,34.5,N/A,,Clear,350,2012-10-31 14:53:00
7:53 AM,24.1,12.9,62,30.44,10.0,North,27.6,38.0,N/A,,Clear,350,2012-10-31 15:53:00
8:53 AM,24.1,12.9,62,30.43,10.0,North,28.8,34.5,N/A,,Clear,350,2012-10-31 16:53:00
9:53 AM,23.0,12.0,63,30.43,10.0,North,27.6,34.5,N/A,,Clear,360,2012-10-31 17:53:00
10:53 AM,23.0,12.0,63,30.43,8.0,North,27.6,35.7,N/A,,Clear,360,2012-10-31 18:53:00
11:53 AM,23.0,10.9,60,30.43,10.0,North,29.9,36.8,N/A,,Clear,10,2012-10-31 19:53:00
12:53 PM,23.0,10.9,60,30.44,10.0,North,25.3,33.4,N/A,,Clear,10,2012-10-31 20:53:00
1:53 PM,23.0,10.0,58,30.43,10.0,North,25.3,33.4,N/A,,Clear,10,2012-10-31 21:53:00
2:53 PM,21.9,10.0,60,30.42,10.0,North,24.2,-,N/A,,Clear,10,2012-10-31 22:53:00
3:53 PM,23.0,10.9,60,30.40,10.0,North,24.2,32.2,N/A,,Clear,10,2012-10-31 23:53:00
4:53 PM,23.0,10.9,60,30.39,10.0,North,24.2,31.1,N/A,,Clear,10,2012-11-01 00:53:00
5:53 PM,21.9,10.9,63,30.40,8.0,North,21.9,26.5,N/A,,Clear,10,2012-11-01 01:53:00
6:53 PM,21.9,10.9,63,30.40,10.0,North,19.6,28.8,N/A,,Clear,10,2012-11-01 02:53:00
7:53 PM,21.9,10.9,63,30.40,10.0,North,16.1,-,N/A,,Clear,10,2012-11-01 03:53:00
8:53 PM,21.9,10.9,63,30.40,10.0,NNE,12.7,-,N/A,,Clear,20,2012-11-01 04:53:00
9:53 PM,21.0,10.9,65,30.40,10.0,NNE,16.1,-,N/A,,Clear,20,2012-11-01 05:53:00
10:53 PM,21.0,10.9,65,30.40,10.0,North,13.8,-,N/A,,Clear,10,2012-11-01 06:53:00
11:53 PM,21.0,10.9,65,30.39,10.0,North,12.7,-,N/A,,Clear,10,2012-11-01 07:53:00